Home   Weather   Tashkent   Past weeks

Flag for Uzbekistan Past Weather in Tashkent, Uzbekistan — Yesterday and Last 2 Weeks

Now
46 °F

Clear.


Feels Like: 44 °F
Forecast: 47 / 59 °F
Wind: 6 mph from Northeast

Location: Tashkent

Current Time: Dec 5, 2016 at 5:31:58 am

Latest Report: Dec 5, 2016 at 4:30 am


Visibility: 10 mi

Pressure: 30.30 "Hg

Humidity: 57%

Dew Point: 32 °F

Location of TashkentLocation

Past Weather in Tashkent — Graph

°F

Tashkent Temperature Yesterday

Maximum temperature yesterday: 57 °F (at 2:00 pm)
Minimum temperature yesterday: 41 °F (at 8:30 pm)
Average temperature yesterday: 52 °F

High & Low Weather Summary for the Past Weeks

 TemperatureHumidityPressure
High66 °F (Dec 1, 3:00 pm)100% (Dec 4, 8:30 pm)30.72 "Hg (Dec 4, 8:30 pm)
Low16 °F (Nov 26, 9:30 pm)27% (Dec 2, 12:00 pm)29.89 "Hg (Dec 3, 5:30 am)
Average34 °F70%30.39 "Hg
* Reported Nov 20 4:00 am — Dec 5 4:00 am, Tashkent, Weather by CustomWeather, © 2016

Note: Actual official high and low records may vary slightly from our data, if they occured in-between our weather recording intervals... More about our weather records

Advertising

Tashkent Weather History for the Previous 24 Hours

Scroll right to see more
 ConditionsComfort  
Time TempWeatherWind HumidityBarometerVisibility
4:00 am
Mon, Dec 5
50 °FPassing clouds.6 mph50%30.30 "HgN/A
3:30 am48 °FPassing clouds.5 mph58%30.33 "HgN/A
3:00 am50 °FClear.8 mph50%30.33 "Hg10 mi
2:30 am50 °FClear.7 mph54%30.33 "Hg10 mi
2:00 am46 °FClear.8 mph71%30.33 "Hg10 mi
1:30 am45 °FClear.5 mph76%30.33 "Hg10 mi
1:00 am41 °FClear.3 mph81%30.33 "Hg10 mi
12:30 am43 °FClear.3 mph81%30.36 "Hg10 mi
12:00 am46 °FClear.3 mph71%30.36 "Hg10 mi
11:30 pm
Sun, Dec 4
48 °FClear.2 mph66%30.36 "Hg10 mi
11:00 pm46 °FClear.5 mph71%30.36 "Hg10 mi
10:30 pm45 °FClear.6 mph76%30.36 "Hg10 mi
10:00 pm45 °FClear.5 mph76%30.36 "Hg10 mi
9:30 pm46 °FFog.6 mph82%30.36 "Hg2 mi
9:00 pm46 °FFog.5 mph93%30.36 "Hg2 mi
8:30 pm41 °FFog.7 mph100%30.36 "Hg2 mi
8:00 pm48 °FFog.2 mph94%30.39 "Hg1 mi
7:30 pm46 °FFog.2 mph93%30.39 "Hg2 mi
7:00 pm48 °FFog.3 mph94%30.39 "Hg2 mi
6:30 pm50 °FFog.No wind94%30.39 "Hg2 mi
6:00 pm52 °FFog.2 mph88%30.39 "Hg2 mi
5:30 pm54 °FFog.3 mph82%30.36 "Hg2 mi
5:00 pm52 °FFog.6 mph82%30.36 "Hg2 mi
4:30 pm57 °FClear.2 mph72%30.36 "Hg4 mi
4:00 pm57 °FClear.3 mph72%30.36 "Hg4 mi
3:30 pm57 °FClear.6 mph72%30.36 "Hg4 mi
3:00 pm57 °FClear.7 mph77%30.36 "Hg4 mi
2:30 pm55 °FScattered clouds.6 mph77%30.36 "Hg4 mi
2:00 pm57 °FScattered clouds.6 mph77%30.36 "Hg4 mi
1:30 pm55 °FPartly sunny.6 mph72%30.36 "Hg4 mi
1:00 pm55 °FPartly sunny.6 mph72%30.36 "Hg4 mi
12:30 pm55 °FFog.3 mph77%30.36 "Hg3 mi
12:00 pm54 °FFog.6 mph77%30.36 "Hg3 mi
11:30 am54 °FFog.6 mph77%30.36 "Hg3 mi
11:00 am54 °FFog.8 mph82%30.36 "Hg3 mi
10:30 am52 °FFog.6 mph88%30.33 "Hg3 mi
10:00 am50 °FFog.6 mph88%30.33 "Hg3 mi
9:30 am52 °FPartly sunny.2 mph88%30.33 "Hg4 mi
9:00 am52 °FPartly sunny.5 mph82%30.33 "Hg4 mi
8:30 am52 °FPartly sunny.2 mph82%30.30 "Hg4 mi
8:00 am52 °FPartly sunny.7 mph82%30.27 "HgN/A
7:00 am54 °FPassing clouds.6 mph82%30.24 "HgN/A
6:30 am52 °FPassing clouds.6 mph88%30.18 "HgN/A
6:00 am55 °FPassing clouds.5 mph77%30.21 "HgN/A
5:30 am55 °FPassing clouds.6 mph82%30.18 "HgN/A
5:00 am55 °FPassing clouds.6 mph77%30.18 "HgN/A
Weather by CustomWeather, © 2016

See weather overviewHow to use our weather pages